This is the latest recevied weather packets stored in our database for station/object 9M2EVR-2. If no packets are shown the sender has not sent any weather packets the latest 10 day(s).
| Time | Temp. | Humidity | Pressure | Rain* | Wind** | Luminosity | Snow |
|---|---|---|---|---|---|---|---|
| 1778038973 | 41.11° C | 45% | 1006.8 hPa | - | - | - | - |
| 1778038072 | 41.11° C | 45% | 1006.8 hPa | - | - | - | - |
| 1778037172 | 41.11° C | 45% | 1006.8 hPa | - | - | - | - |
| 1778036271 | 40.56° C | 46% | 1007 hPa | - | - | - | - |
| 1778035370 | 40.56° C | 46% | 1007.1 hPa | - | - | - | - |
| 1778034469 | 40° C | 47% | 1007.3 hPa | - | - | - | - |
| 1778033568 | 40° C | 47% | 1007.4 hPa | - | - | - | - |
| 1778032667 | 39.44° C | 48% | 1007.5 hPa | - | - | - | - |
| 1778031766 | 39.44° C | 48% | 1007.4 hPa | - | - | - | - |
| 1778030866 | 39.44° C | 50% | 1007.4 hPa | - | - | - | - |
| 1778029965 | 38.89° C | 52% | 1007.1 hPa | - | - | - | - |
| 1778029064 | 37.22° C | 53% | 1007.1 hPa | - | - | - | - |
| 1778028163 | 36.67° C | 53% | 1006.7 hPa | - | - | - | - |
| 1778027262 | 36.67° C | 55% | 1006.8 hPa | - | - | - | - |
| 1778025706 | 37.22° C | 52% | 1006.3 hPa | - | - | - | - |
| 1778024805 | 37.22° C | 52% | 1006 hPa | - | - | - | - |
| 1778023904 | 38.89° C | 49% | 1006.1 hPa | - | - | - | - |
| 1778023003 | 38.33° C | 49% | 1006 hPa | - | - | - | - |
| 1778022102 | 38.33° C | 50% | 1005.7 hPa | - | - | - | - |
| 1778021202 | 38.33° C | 51% | 1005.5 hPa | - | - | - | - |
| 1778020301 | 37.22° C | 53% | 1005.4 hPa | - | - | - | - |
| 1778019400 | 36.67° C | 54% | 1005.3 hPa | - | - | - | - |
| 1778018499 | 36.67° C | 54% | 1005.2 hPa | - | - | - | - |
| 1778017599 | 36.67° C | 54% | 1005.2 hPa | - | - | - | - |
| 1778016698 | 36.67° C | 54% | 1005.1 hPa | - | - | - | - |
* Rain since midnight (hover to see other rain measurements)
** Current wind speed in m/s (hover to see current wind gust speed)